sat.trackr.live / text

‹ back to catalog

PELICAN-7

NORAD 69017 · 2026-100AP

PAYLOAD ACTIVE UNKNOWN

§ Identity

Operator
Country
US
Launch date
2026-05-03
Launch site
AFWTR
Launch vehicle
Mass (kg)
RCS (m²)

Purposes: earth_obs

External: N2YO · Heavens-Above · Gunter

§ Orbital elements

Epoch: 2026-05-25T04:27:44.961120Z

Period
94.69 min
Inclination
97.4075°
Eccentricity
0.0004726
Mean motion
15.20681844 rev/d
Perigee alt
500.5 km
Apogee alt
507.0 km
Semi-major
6,881.9 km
B*
1.2433e-5
RAAN
43.4272°
Arg perigee
90.7265°
Mean anomaly
269.4512°
Rev number
331

§ Raw data

PELICAN-71 69017U 26100AP  26145.18593705  .00000205  00000+0  12433-4 0  99912 69017  97.4075  43.4272 0004726  90.7265 269.4512 15.20681844  3312

JSON: /api/v1/satellites/69017 · /tle

For live sub-satellite position, see the globe view (requires WebGL).

§ Visibility from observer

Set your observer location to see the next 7 days of passes ≥ 10°. The values pass through the URL so the page stays shareable.

No JS? Fill the form by hand. The geolocation button needs JavaScript.